Location: Bush Observatory
(40.2653°N, 94.3194°W)
Time: 15:56:46
(UTC-05:00)

JAS-2 - Visible Passes

Search period start: 19 April 2014 00:00
Search period end: 29 April 2014 00:00
Orbit: 799 x 1323 km, 98.5° (Epoch: 19 April)

Date Brightness Start Highest point End Pass type
(mag) Time Alt. Az. Time Alt. Az. Time Alt. Az.
19 Apr 12.2 21:14:26 10° WSW 21:17:15 14° W 21:19:58 10° WNW visible
21 Apr 12.1 21:09:15 10° SW 21:12:19 15° W 21:15:15 10° WNW visible
23 Apr 12.0 21:04:06 10° SW 21:07:22 16° W 21:10:31 10° NW visible
25 Apr 12.0 20:58:57 10° SW 21:02:24 17° W 21:05:45 10° NW visible
27 Apr 11.9 20:53:49 10° SW 20:57:27 18° W 21:00:58 10° NW visible
